Location: Unspecified
(0.0000°N, 0.0000°E)
Time: 18:45:41
(UTC+00:00)

THORAD DELTA 1 DEB - Pass Details

Date: 16 February 2026
Orbit: 1442 x 1568 km, 101.4° (Epoch: 22 February)

Event Time Altitude Azimuth Distance (km) Brightness Sun altitude
Exits shadow 21:32:26 40° 233° (SW) 2,166 ? -48.1°
Drops below altitude 10° 21:37:59 10° 210° (SSW) 3,752 ? -49.4°
Sets 21:40:55 0° 205° (SSW) 4,729 ? -50.1°
